This is the latest recevied weather packets stored in our database for station/object KY4EF. If no packets are shown the sender has not sent any weather packets the latest 10 day(s).
| Time | Temp. | Humidity | Pressure | Rain* | Wind** | Luminosity | Snow |
|---|---|---|---|---|---|---|---|
| 1777979913 | 6.11° C | 99% | 1014 hPa | 0 mm | - | 15 W/m² | - |
| 1777979609 | 5.56° C | 99% | 1014.1 hPa | 0 mm | - | 14 W/m² | - |
| 1777979305 | 6.11° C | 99% | 1013.6 hPa | 0 mm | - | 14 W/m² | - |
| 1777979002 | 5.56° C | 99% | 1013.8 hPa | 0 mm | - | 12 W/m² | - |
| 1777978699 | 6.11° C | 99% | 1013.9 hPa | 0 mm | - | 9 W/m² | - |
| 1777978395 | 5.56° C | 99% | 1013.9 hPa | 0 mm | - | 7 W/m² | - |
| 1777978091 | 6.11° C | 99% | 1014 hPa | 0 mm | - | 4 W/m² | - |
| 1777977789 | 6.11° C | 99% | 1013.9 hPa | 0 mm | - | 2 W/m² | - |
| 1777977484 | 6.11° C | 99% | 1014.1 hPa | 0 mm | - | 1 W/m² | - |
| 1777977183 | 6.11° C | 99% | 1014.2 hPa | 0 mm | - | 1 W/m² | - |
| 1777976880 | 6.11° C | 99% | 1013.8 hPa | 0 mm | - | 0 W/m² | - |
| 1777976578 | 6.11° C | 99% | 1014.1 hPa | 0 mm | - | 0 W/m² | - |
| 1777976277 | 6.67° C | 99% | 1014 hPa | 0 mm | - | 0 W/m² | - |
| 1777975972 | 6.11° C | 99% | 1013.9 hPa | 0 mm | - | 0 W/m² | - |
| 1777975669 | 6.11° C | 99% | 1013.8 hPa | 0 mm | - | 0 W/m² | - |
| 1777975365 | 6.67° C | 99% | 1013.6 hPa | 0 mm | - | 0 W/m² | - |
| 1777975061 | 6.11° C | 98% | 1013.8 hPa | 0 mm | - | 0 W/m² | - |
| 1777974759 | 6.67° C | 98% | 1013.9 hPa | 0 mm | - | 0 W/m² | - |
| 1777974454 | 6.67° C | 98% | 1013.9 hPa | 0 mm | - | 0 W/m² | - |
| 1777974151 | 7.22° C | 98% | 1014 hPa | 0 mm | - | 0 W/m² | - |
| 1777973847 | 6.67° C | 99% | 1013.9 hPa | 0 mm | - | 0 W/m² | - |
| 1777973545 | 6.67° C | 98% | 1013.9 hPa | 0 mm | - | 0 W/m² | - |
| 1777973242 | 6.67° C | 98% | 1014 hPa | 0 mm | - | 0 W/m² | - |
| 1777972941 | 7.22° C | 98% | 1013.9 hPa | 0 mm | - | 0 W/m² | - |
| 1777972637 | 7.22° C | 98% | 1013.9 hPa | 0 mm | - | 0 W/m² | - |
* Rain latest hour (hover to see other rain measurements)
** Current wind speed in m/s (hover to see current wind gust speed)